STARLINK-3281, 50183

Orbit data source: Space-Track

STARLINK-3281, 50183 is a payload satellite owned by SpaceX/Seattle (US) in LEO that was launched on Sat, 18 Dec 2021 UTC via an FALCON 9 launch vehicle from the Air Force Western Test Range (AFWTR). Payload-class satellites include a variety of spacecraft equipped with specific instruments for various scientific and technological missions. These include communications satellites like Starlink; space stations such as the ISS; scientific satellites like the Hubble; Earth observation satellites from companies like Planet Labs, Umbra, and HawkEye 360; GPS; miniature CubeSats for education and research; and military/defense satellites.

Loading next visibility...
Identifier
50183, 2021-125AD
Orbit
LEO
Country
Flag of USUS
Related business
Manufacturer
SpaceX/Seattle
Mission
Operational Commercial Communications
Bus & Motor
STARLINK, Unknown motor
Mass
290 kg wet, ~270 kg dry
Launch date (UTC)
2021-12-18 (5 years ago)
Launch vehicle
FALCON 9
Launch site
Air Force Western Test Range (AFWTR)
Object type
Payload
Rocket body
Debris
Shape & HBR
Box + 1 Pan, 10.1 m
Radar Cross Section
13.562 m², Large (>1 m²)

Expand to show TLE details & history
Last TLE update: 2 days ago

TLE from 2 days ago
0 STARLINK-3281
1 50183U 21125AD  26171.20555014  .00000746  00000-0  64975-4 0  9999
2 50183  53.1606 148.7960 0001498  78.5870 281.5290 15.08839788252128
Epoch: 2026-06-20T04:55Z
TLE epoch observation values (Epoch: 2026-06-20T04:55:59.532Z)
Latitude
0.00003°
Longitude
166.37446°
Altitude
540.428 km
Speed
7.593 km/s
True Right ascension
09h 55m 11s
True Declination
0° 00' 00"
Sunlit
Object was in daylight at epoch
Visualization orbit readout
Latitude
Unknown
Longitude
Unknown
Altitude
Unknown
Speed
Unknown
Apparent Right ascension
Unknown
Apparent Declination
Unknown
Sunlit
N/A
Visualization observer readout
Local Sidereal Time
23:07:39
Azimuth
Unknown
Elevation
Unknown
Doppler factor
Unknown
Orbital elements
Apogee altitude
541.034 km
Perigee altitude
538.962 km
Semi-major axis
6,918.135 km
Eccentricity
0.00015
Inclination
53.1606°
RAAN
148.796°
Arg. of periapsis
78.587°
True anomaly
281.51218°
Mean anomaly
281.529°
Eccentric anomaly
281.52059°
Mean motion
3.7719 °/min
Orbital period
95.44 mins
BSTAR
0.000064975
Loading maneuver chart data...
Computing Atmospheric mass density...
Loading historical data...
Loading historical data...
Loading historical data...
Loading historical data...
Loading historical data...
Loading historical data...
Loading historical data...

Documentation

Showing up to 5 results
|